Home > Weather > Iasi > Past weeks

Flag for Romania Weather for the Past 2 Weeks in Iasi, Romania

Now
68 °F

Sunny.


Feels Like: 68 °F
Forecast: 53 / 67 °F
Wind: 10 mph from East

Location: Iasi Airport

Current Time: May 1, 2016 at 7:24:28 PM

Latest Report: May 1, 2016 at 7:00 PM


Visibility: 10 mi

Pressure: 30.09 "Hg

Humidity: 46%

Dew Point: 46 °F

Location of IasiLocation

Historic Weather in Iasi — Graph

°F

Iasi Temperature Yesterday

Maximum temperature yesterday: 70 °F (at 2:30 PM)
Minimum temperature yesterday: 46 °F (at 7:30 AM)
Average temperature yesterday: 60 °F

High & Low Weather Summary for the Past Weeks

 TemperatureHumidityPressure
High82 °F (Apr 18, 2:00 PM)100% (Apr 20, 10:00 AM)30.21 "Hg (Apr 20, 10:00 AM)
Low37 °F (Apr 27, 3:00 AM)26% (Apr 17, 4:00 PM)29.47 "Hg (Apr 24, 4:00 PM)
Average57 °F62%29.91 "Hg
* Reported Apr 16 6:00 PM — May 1 6:00 PM, Iasi, Weather by CustomWeather, © 2016

Note: Actual official high and low records may vary slightly from our data, if they occured in-between our weather recording intervals... More about our weather records

Advertising

Iasi Weather History for the Previous 24 Hours

Scroll right to see more
 ConditionsComfort  
Time TempWeatherWind HumidityBarometerVisibility
6:00 PM
Sun, May 1
70 °FSunny.14 mph38%30.09 "Hg10 mi
5:30 PM70 °FPassing clouds.12 mph38%30.09 "HgN/A
5:00 PM68 °FPassing clouds.2 mph43%30.09 "HgN/A
4:30 PM66 °FPassing clouds.3 mph43%30.09 "HgN/A
4:00 PM64 °FPassing clouds.5 mph56%30.09 "HgN/A
3:30 PM64 °FPassing clouds.16 mph52%30.09 "HgN/A
3:00 PM68 °FPassing clouds.14 mph43%30.09 "HgN/A
2:30 PM70 °FPassing clouds.9 mph33%30.09 "HgN/A
2:00 PM72 °FSunny.8 mph38%30.09 "Hg10 mi
1:30 PM72 °FPassing clouds.6 mph41%30.09 "HgN/A
1:00 PM70 °FPassing clouds.6 mph43%30.12 "HgN/A
12:30 PM68 °FSunny.3 mph49%30.12 "Hg10 mi
12:00 PM68 °FSunny.3 mph46%30.12 "Hg10 mi
11:30 AM66 °FSunny.3 mph56%30.15 "Hg10 mi
11:00 AM64 °FSunny.2 mph60%30.15 "Hg10 mi
10:30 AM64 °FSunny.3 mph56%30.15 "Hg10 mi
10:00 AM61 °FPassing clouds.3 mph63%30.15 "HgN/A
9:30 AM59 °FPassing clouds.3 mph68%30.15 "HgN/A
9:00 AM57 °FPassing clouds.3 mph67%30.15 "HgN/A
8:30 AM54 °FPassing clouds.5 mph77%30.12 "HgN/A
7:30 AM50 °FSunny.2 mph88%30.12 "Hg10 mi
7:00 AM48 °FSunny.3 mph87%30.12 "Hg10 mi
6:30 AM48 °FClear.3 mph87%30.12 "Hg10 mi
5:30 AM48 °FClear.3 mph87%30.09 "Hg10 mi
5:00 AM46 °FClear.2 mph93%30.09 "Hg10 mi
4:00 AM52 °FClear.1 mph72%30.09 "Hg10 mi
3:00 AM52 °FClear.1 mph77%30.09 "Hg10 mi
2:00 AM52 °FClear.3 mph82%30.09 "Hg10 mi
1:00 AM55 °FClear.2 mph67%30.09 "Hg10 mi
12:00 AM57 °FPassing clouds.3 mph63%30.09 "HgN/A
11:00 PM
Sat, Apr 30
57 °FClear.3 mph63%30.09 "Hg10 mi
10:00 PM59 °FClear.3 mph59%30.09 "Hg10 mi
9:00 PM61 °FSunny.3 mph59%30.09 "Hg10 mi
8:30 PM61 °FSunny.7 mph63%30.09 "Hg10 mi
8:00 PM63 °FSunny.8 mph59%30.09 "Hg10 mi
7:30 PM64 °FSunny.9 mph52%30.09 "Hg10 mi
7:00 PM66 °FScattered clouds.7 mph49%30.07 "HgN/A
Weather by CustomWeather, © 2016

See weather overviewHow to use our weather pages